This is the latest recevied weather packets stored in our database for station/object HP3ICC-23. If no packets are shown the sender has not sent any weather packets the latest 10 day(s).
| Time | Temp. | Humidity | Pressure | Rain* | Wind** | Luminosity | Snow |
|---|---|---|---|---|---|---|---|
| 1788048051 | 14.44° C | 88% | 1012 hPa | 0 mm | - | - | - |
| 1788047991 | 14.44° C | 88% | 1012 hPa | 0 mm | - | - | - |
| 1788046851 | 14.44° C | 87% | 1012 hPa | 0 mm | - | - | - |
| 1788046791 | 14.44° C | 87% | 1012 hPa | 0 mm | - | - | - |
| 1788045650 | 15° C | 84% | 1012 hPa | 0 mm | - | - | - |
| 1788045590 | 15° C | 84% | 1012 hPa | 0 mm | - | - | - |
| 1788044450 | 15° C | 84% | 1012 hPa | 0 mm | - | - | - |
| 1788044390 | 15° C | 84% | 1012 hPa | 0 mm | - | - | - |
| 1788043250 | 15° C | 83% | 1011 hPa | 0 mm | - | - | - |
| 1788043189 | 15° C | 83% | 1011 hPa | 0 mm | - | - | - |
| 1788042049 | 15.56° C | 79% | 1011 hPa | 0 mm | - | - | - |
| 1788041989 | 15.56° C | 79% | 1011 hPa | 0 mm | - | - | - |
| 1788040849 | 15° C | 79% | 1011 hPa | 0.25 mm | - | - | - |
| 1788040788 | 15° C | 79% | 1011 hPa | 0.25 mm | - | - | - |
| 1788039648 | 15° C | 78% | 1011 hPa | 0.51 mm | - | - | - |
| 1788039588 | 15° C | 78% | 1011 hPa | 0.51 mm | - | - | - |
| 1788038448 | 16.11° C | 75% | 1011 hPa | 1.02 mm | - | - | - |
| 1788038388 | 16.11° C | 75% | 1011 hPa | 1.02 mm | - | - | - |
| 1788037248 | 15.56° C | 75% | 1011 hPa | 2.79 mm | - | - | - |
| 1788037188 | 15.56° C | 75% | 1011 hPa | 2.79 mm | - | - | - |
| 1788036047 | 15.56° C | 73% | 1011 hPa | 2.29 mm | - | - | - |
| 1788033647 | 16.11° C | 71% | 1011 hPa | 0 mm | - | - | - |
| 1788033587 | 16.11° C | 71% | 1011 hPa | 0 mm | - | - | - |
| 1788032447 | 16.11° C | 70% | 1011 hPa | 0 mm | - | - | - |
| 1788032387 | 16.11° C | 70% | 1011 hPa | 0 mm | - | - | - |
* Rain latest hour (hover to see other rain measurements)
** Current wind speed in m/s (hover to see current wind gust speed)